Showing default

QSS, 41731

Orbit data source: Space-Track

QSS, 41731 is a payload satellite owned by CAS (CN) in SSO that was launched on Mon, 15 Aug 2016 UTC via a CHANG ZHENG 2D launch vehicle from the Jiuquan Satellite Launch Center, China (JSC). Payloads include a variety of satellites, spacecraft, and rockets equipped with specific instruments for various scientific and technological missions. These include communications satellites like Starlink; space stations such as the ISS; scientific satellites like the Hubble; Earth observation satellites from companies like Planet Labs, Umbra, and HawkEye 360; GPS; miniature CubeSats for education and research; and military/defense satellites.

Loading next visibility...
QSS details
Identifier
41731, 2016-051A
Orbit
SSO
Last TLE update6 hours ago
Origin
Flag of CNCAS (CN / PRC)
ManufacturerSECM/USTC
MissionOperational Civil Technology
Bus & MotorCAST-2000?, AOCS
Mass640 kg wet, ~500 kg dry
Launch date (UTC)
2016-08-15 (8 years ago)
Launch vehicle
CHANG ZHENG 2D
Launch site
Jiuquan Satellite Launch Center, China (JSC)
Object type
Payload
Rocket body
Debris
Shape & HBRBox + 2 Pan, 4 m
Radar Cross Section5.141 m², Large (>1 m²)

Expand to show TLE details & history

TLE from 6 hours ago
0 QSS
1 41731U 16051A   24361.44107883  .00020980  00000-0  44172-3 0  9990
2 41731  97.3045 273.3464 0006005 244.6285 115.4342 15.45284889466300
Epoch: 2024-12-26T10:35Z
Definitive object data (Epoch: 2024-12-26T10:35:09.21Z)
Latitude-0.00012°
Longitude19.13761°
Altitude435.427 km
Speed7.649 km/s
True Right ascension18h 13m 23s
True Declination0° 00' 00"
Sunlit
Object was in daylight at TLE epoch
Visualization TLE readout
Latitude-64.88877°
Longitude-176.40489°
Altitude451.187 km
Speed7.643 km/s
Apparent Right ascension04h 14m 14s
Apparent Declination-53° 10' 14"
Sunlit
Object is in daylight
Visualization observer readout
Local Sidereal Time15:40:40
Azimuth200.548° SSW
Elevation-75.567°
Doppler factor1
Orbital elements
Apogee altitude431.556 km
Perigee altitude423.382 km
Semi-major axis6,805.606 km
Eccentricity0.0006005
Inclination97.3045°
RAAN273.3464°
Arg. of periapsis244.6285°
True anomaly115.49632°
Mean anomaly115.4342°
Eccentric anomaly115.46526°
Mean motion3.86583 °/min
BSTAR0.00044172
Orbital period93.12 mins
Loading maneuver chart data...
Loading historical data...
Loading historical data...
Loading historical data...
Loading historical data...
Loading historical data...
Loading historical data...
Loading historical data...
Other satellites on launch #51 in the year 2016 (2016-08-15 UTC)

QSS Visibility forecast

Observer location: undefined°, undefined

Span
Click to sort rows by Start time (UTC) header in descending order
Start Az.
Max El. time (UTC)
Max El. Az.
Max El.
End time (UTC)
End Az.
6 mins2024-12-26 18:28:31.357Z171.349° S2024-12-26 18:31:31.357Z207.945° SW43.47°2024-12-26 18:34:31.357Z344.686° N
5 mins2024-12-27 07:21:31.357Z3.695° NNE2024-12-27 07:23:31.357Z274.16° WNW43.329°2024-12-27 07:26:31.357Z199.774° SSW
|